| time (UTC) | temp C | wind direction | speed KPH | gust KPH | rain 1hr cm | rain 24hr cm | rain mn cm | humidity % | barometer mb |
| 20260507080020 | 23 | 306 | 9.7 | 19.3 | 0.00 | 0.00 | 0.00 | 49 | 1020.4 |
| 20260507074517 | 23 | 314 | 6.4 | 20.9 | 0.00 | 0.00 | 0.00 | 52 | 1020.4 |
| 20260507073012 | 23 | 324 | 8.0 | 19.3 | 0.00 | 0.00 | 0.00 | 51 | 1020.2 |
| 20260507071513 | 22 | 315 | 11.3 | 19.3 | 0.00 | 0.00 | 0.00 | 51 | 1020.1 |
| 20260507070004 | 23 | 304 | 4.8 | 14.5 | 0.00 | 0.00 | 0.00 | 52 | 1020.4 |
| 20260507064637 | 22 | 315 | 4.8 | 19.3 | 0.00 | 0.00 | 0.00 | 54 | 1020.4 |
| 20260507063109 | 22 | 333 | 6.4 | 16.1 | 0.00 | 0.00 | 0.00 | 55 | 1020.4 |
| 20260507061553 | 21 | 327 | 4.8 | 14.5 | 0.00 | 0.00 | 0.00 | 55 | 1020.5 |
| 20260507060108 | 21 | 360 | 4.8 | 12.9 | 0.00 | 0.00 | 0.00 | 56 | 1020.7 |
| 20260507054548 | 21 | 360 | 4.8 | 17.7 | 0.00 | 0.00 | 0.00 | 58 | 1020.5 |
| 20260507053040 | 20 | 318 | 6.4 | 14.5 | 0.00 | 0.00 | 0.00 | 60 | 1020.5 |
| 20260507051540 | 20 | 360 | 4.8 | 14.5 | 0.00 | 0.00 | 0.00 | 62 | 1020.6 |
| 20260507050034 | 18 | 360 | 3.2 | 6.4 | 0.00 | 0.00 | 0.00 | 64 | 1020.5 |
| 20260507044516 | 18 | 360 | 1.6 | 4.8 | 0.00 | 0.00 | 0.00 | 67 | 1020.3 |
| 20260507043012 | 17 | 316 | 1.6 | 4.8 | 0.00 | 0.00 | 0.00 | 69 | 1020.5 |
| 20260507041520 | 16 | 315 | 0.0 | 1.6 | 0.00 | 0.00 | 0.00 | 72 | 1020.3 |
| 20260507040100 | 15 | 317 | 0.0 | 0.0 | 0.00 | 0.00 | 0.00 | 74 | 1020.2 |
| 20260507034556 | 13 | 317 | 0.0 | 0.0 | 0.00 | 0.00 | 0.00 | 76 | 1020.1 |
| 20260507033052 | 13 | 316 | 0.0 | 0.0 | 0.00 | 0.00 | 0.00 | 75 | 1019.9 |
| 20260507031547 | 12 | 316 | 0.0 | 0.0 | 0.00 | 0.00 | 0.00 | 75 | 1019.9 |
| 20260507030040 | 12 | 316 | 0.0 | 0.0 | 0.00 | 0.00 | 0.00 | 74 | 1019.6 |
| 20260507024539 | 12 | 316 | 0.0 | 0.0 | 0.00 | 0.00 | 0.00 | 74 | 1019.5 |
| 20260507023042 | 12 | 316 | 0.0 | 0.0 | 0.00 | 0.00 | 0.00 | 73 | 1019.3 |
| 20260507021540 | 12 | 315 | 0.0 | 3.2 | 0.00 | 0.00 | 0.00 | 73 | 1019.4 |
| 20260507020019 | 12 | 315 | 0.0 | 1.6 | 0.00 | 0.00 | 0.00 | 72 | 1019.4 |
| 20260507014518 | 13 | 360 | 0.0 | 3.2 | 0.00 | 0.03 | 0.00 | 72 | 1019.3 |
| 20260507013017 | 13 | 360 | 0.0 | 4.8 | 0.00 | 0.03 | 0.00 | 72 | 1019.3 |
| 20260507011516 | 13 | 360 | 1.6 | 4.8 | 0.00 | 0.03 | 0.00 | 72 | 1019.3 |
| 20260507010013 | 13 | 360 | 1.6 | 4.8 | 0.00 | 0.03 | 0.00 | 72 | 1019.3 |
| 20260507004512 | 13 | 317 | 1.6 | 3.2 | 0.00 | 0.03 | 0.00 | 72 | 1019.3 |
| 20260507003010 | 13 | 360 | 3.2 | 6.4 | 0.00 | 0.03 | 0.00 | 72 | 1019.3 |
| 20260507001513 | 13 | 360 | 3.2 | 6.4 | 0.00 | 0.03 | 0.00 | 72 | 1019.5 |
| 20260507000005 | 13 | 360 | 1.6 | 6.4 | 0.00 | 0.03 | 0.00 | 72 | 1019.5 |
| 20260506234504 | 13 | 319 | 3.2 | 6.4 | 0.00 | 0.03 | 0.00 | 71 | 1019.4 |
| 20260506233002 | 13 | 360 | 3.2 | 4.8 | 0.00 | 0.03 | 0.00 | 71 | 1019.4 |
| 20260506231501 | 13 | 315 | 0.0 | 1.6 | 0.00 | 0.03 | 0.00 | 70 | 1019.5 |
| 20260506230111 | 13 | 314 | 0.0 | 6.4 | 0.00 | 0.03 | 0.00 | 70 | 1019.5 |
| 20260506224554 | 14 | 314 | 1.6 | 4.8 | 0.00 | 0.03 | 0.00 | 70 | 1019.7 |
| 20260506223050 | 14 | 360 | 1.6 | 4.8 | 0.00 | 0.03 | 0.00 | 70 | 1019.7 |
| 20260506221602 | 14 | 313 | 0.0 | 3.2 | 0.00 | 0.03 | 0.00 | 69 | 1019.8 |
| 20260506220043 | 14 | 360 | 1.6 | 6.4 | 0.00 | 0.03 | 0.00 | 70 | 1019.8 |
| 20260506214538 | 13 | 317 | 3.2 | 8.0 | 0.00 | 0.03 | 0.00 | 70 | 1019.8 |
| 20260506213035 | 13 | 9 | 1.6 | 4.8 | 0.00 | 0.03 | 0.00 | 70 | 1020.0 |
| 20260506211535 | 13 | 10 | 0.0 | 0.0 | 0.00 | 0.03 | 0.00 | 70 | 1019.9 |
| 20260506210025 | 13 | 9 | 0.0 | 0.0 | 0.00 | 0.03 | 0.00 | 70 | 1019.9 |
| 20260506204520 | 14 | 9 | 0.0 | 3.2 | 0.00 | 0.03 | 0.03 | 70 | 1019.9 |
| 20260506203020 | 14 | 9 | 0.0 | 4.8 | 0.00 | 0.03 | 0.03 | 69 | 1020.0 |
| 20260506201622 | 14 | 9 | 0.0 | 3.2 | 0.00 | 0.03 | 0.03 | 69 | 1020.0 |
| 20260506200015 | 15 | 9 | 0.0 | 3.2 | 0.00 | 0.03 | 0.03 | 69 | 1020.1 |
| 20260506194515 | 15 | 9 | 0.0 | 4.8 | 0.00 | 0.03 | 0.03 | 68 | 1020.2 |
| 20260506193020 | 15 | 9 | 0.0 | 0.0 | 0.00 | 0.03 | 0.03 | 67 | 1020.1 |
| 20260506191514 | 15 | 9 | 0.0 | 0.0 | 0.00 | 0.03 | 0.03 | 67 | 1020.2 |
| 20260506190015 | 15 | 9 | 0.0 | 3.2 | 0.00 | 0.03 | 0.03 | 66 | 1020.1 |
| 20260506184518 | 16 | 10 | 1.6 | 4.8 | 0.00 | 0.03 | 0.03 | 65 | 1020.0 |
| 20260506183009 | 16 | 11 | 1.6 | 4.8 | 0.00 | 0.03 | 0.03 | 65 | 1020.0 |
| 20260506181507 | 16 | 11 | 0.0 | 0.0 | 0.00 | 0.03 | 0.03 | 64 | 1019.7 |
| 20260506180005 | 16 | 11 | 0.0 | 0.0 | 0.00 | 0.03 | 0.03 | 63 | 1019.4 |
| 20260506174511 | 16 | 11 | 0.0 | 0.0 | 0.00 | 0.03 | 0.03 | 62 | 1019.3 |
| 20260506173003 | 17 | 11 | 0.0 | 0.0 | 0.00 | 0.03 | 0.03 | 61 | 1019.2 |
| 20260506171502 | 17 | 11 | 0.0 | 0.0 | 0.00 | 0.03 | 0.03 | 59 | 1019.2 |
| 20260506170100 | 17 | 11 | 0.0 | 3.2 | 0.00 | 0.03 | 0.03 | 58 | 1019.1 |
| 20260506164558 | 18 | 11 | 0.0 | 3.2 | 0.00 | 0.03 | 0.03 | 57 | 1019.0 |
| 20260506163107 | 18 | 11 | 0.0 | 3.2 | 0.00 | 0.03 | 0.03 | 55 | 1018.9 |
| 20260506161557 | 19 | 11 | 0.0 | 3.2 | 0.00 | 0.03 | 0.03 | 53 | 1018.8 |
| 20260506160057 | 19 | 11 | 0.0 | 3.2 | 0.00 | 0.03 | 0.03 | 53 | 1018.7 |
| 20260506154544 | 20 | 37 | 0.0 | 6.4 | 0.00 | 0.03 | 0.03 | 51 | 1018.7 |
| 20260506153043 | 20 | 51 | 1.6 | 4.8 | 0.00 | 0.03 | 0.03 | 50 | 1018.7 |
| 20260506151543 | 20 | 43 | 1.6 | 6.4 | 0.00 | 0.03 | 0.03 | 50 | 1018.6 |
| 20260506150035 | 20 | 351 | 1.6 | 8.0 | 0.00 | 0.03 | 0.03 | 49 | 1018.6 |
| 20260506144543 | 21 | 340 | 3.2 | 8.0 | 0.00 | 0.03 | 0.03 | 46 | 1018.6 |
| 20260506143035 | 21 | 49 | 1.6 | 6.4 | 0.00 | 0.03 | 0.03 | 47 | 1018.6 |
| 20260506141533 | 22 | 328 | 3.2 | 9.7 | 0.00 | 0.03 | 0.03 | 43 | 1018.7 |
| 20260506140031 | 22 | 270 | 1.6 | 9.7 | 0.00 | 0.03 | 0.03 | 45 | 1018.6 |
| 20260506134523 | 23 | 144 | 3.2 | 9.7 | 0.00 | 0.03 | 0.03 | 45 | 1018.6 |
| 20260506133028 | 22 | 57 | 3.2 | 6.4 | 0.00 | 0.03 | 0.03 | 46 | 1018.7 |
| 20260506131522 | 22 | 59 | 3.2 | 9.7 | 0.00 | 0.03 | 0.03 | 46 | 1018.8 |
| 20260506130019 | 23 | 360 | 3.2 | 9.7 | 0.00 | 0.03 | 0.03 | 45 | 1018.9 |
| 20260506124521 | 23 | 333 | 4.8 | 12.9 | 0.00 | 0.03 | 0.03 | 43 | 1019.1 |
| 20260506123016 | 23 | 323 | 4.8 | 12.9 | 0.00 | 0.03 | 0.03 | 45 | 1019.2 |
| 20260506121517 | 23 | 322 | 3.2 | 12.9 | 0.00 | 0.03 | 0.03 | 46 | 1019.2 |
| 20260506120011 | 23 | 360 | 3.2 | 14.5 | 0.00 | 0.03 | 0.03 | 45 | 1019.3 |
| 20260506114528 | 23 | 211 | 1.6 | 8.0 | 0.00 | 0.03 | 0.03 | 46 | 1019.3 |
| 20260506113007 | 23 | 360 | 3.2 | 9.7 | 0.00 | 0.03 | 0.03 | 46 | 1019.4 |
| 20260506111507 | 22 | 155 | 4.8 | 14.5 | 0.00 | 0.03 | 0.03 | 47 | 1019.4 |
| 20260506110104 | 23 | 130 | 3.2 | 11.3 | 0.00 | 0.03 | 0.03 | 48 | 1019.5 |
| 20260506104501 | 22 | 360 | 3.2 | 16.1 | 0.00 | 0.05 | 0.03 | 47 | 1019.6 |
| 20260506103001 | 23 | 132 | 3.2 | 9.7 | 0.00 | 0.05 | 0.03 | 48 | 1019.8 |
| 20260506101601 | 23 | 360 | 4.8 | 14.5 | 0.00 | 0.05 | 0.03 | 47 | 1019.8 |
| 20260506100111 | 22 | 175 | 3.2 | 12.9 | 0.00 | 0.05 | 0.03 | 49 | 1019.9 |
| 20260506094556 | 23 | 360 | 3.2 | 11.3 | 0.00 | 0.18 | 0.03 | 49 | 1019.9 |
| 20260506093058 | 23 | 154 | 4.8 | 12.9 | 0.00 | 0.18 | 0.03 | 49 | 1019.9 |
| 20260506091556 | 23 | 326 | 4.8 | 9.7 | 0.00 | 0.18 | 0.03 | 48 | 1020.0 |
| 20260506090039 | 22 | 360 | 3.2 | 9.7 | 0.00 | 0.18 | 0.03 | 50 | 1020.0 |
| 20260506084541 | 22 | 322 | 3.2 | 14.5 | 0.00 | 0.20 | 0.03 | 50 | 1020.0 |
| 20260506083036 | 22 | 140 | 3.2 | 11.3 | 0.00 | 0.20 | 0.03 | 48 | 1020.1 |
| 20260506081534 | 22 | 181 | 3.2 | 8.0 | 0.00 | 0.20 | 0.03 | 48 | 1020.0 |